星链-4085 (STARLINK-4085 )
导读
STARLINK-4085是美国太空探索技术公司SpaceX旗下星链Starlink星座的一员,于2022年7月24日发射升空。星链计划旨在构建近地轨道卫星互联网星座,为全球偏远地区提供高速宽带服务。该卫星运行于近地轨道,配备氪离子推进、自主碰撞规避等技术,设计寿命约5年,是星链星座不断扩容组网过程中的一颗标准通信卫星,助力全球低延迟互联网覆盖。
Basic Information
目录编号:
53262
目录名称:
STARLINK-4085
国际标识:
2022-086W
轨道中心:
EARTH
卫星名称:
星链-4085
卫星全名:
星链-4085 (STARLINK-4085 )
卫星状态:
在轨 (已飞行1503 天)
发射日期:
2022-07-24 UTC
国别 :
美国
(US)
星等 :
--
Orbit Information
| 数据来源 | 国际轨道数据 | AOE轨道数据 |
| 星历时间 | 2026-09-03T23:17:50+0800 11小时前 查看轨道信息 | 2026-08-31T22:00:00+0800 3天前 查看轨道信息 |
| 半长轴 | 6843.371km | 6843.37km |
| 偏心率 | 0.0001103 | 0.0001328 |
| 轨道倾角 | 53.160° | 53.159° |
| 近地点辐角 | 100.828° | 76.797° |
| 升交点赤经 | 104.630° | 118.891° |
| 平近点角 | 259.285° | 333.133° |
| 近地点 | 464.479km | 464.324km |
| 远地点 | 465.989km | 466.142km |
| 周期 | 93.900分钟 | 93.900分钟 |
| 每日圈数 | 15.33549 | 15.335493 |
Detailed Information
固有亮度:
5
最大亮度:
2.5
卫星平台:
Starlink v1.5
覆盖范围:
全球
运营商:
太空探索技术公司
运营商所在国:
美国
制造商(研发单位):
太空探索技术公司
制造商所在国:
美国
使用方式:
暂无
Satellite Introduction
星链(Starlink)计划是由太空探索技术公司(SpaceX)提出的一个巨型低轨卫星互联网星座项目,计划在2019年至2024年间在太空搭建由约1.2万颗卫星组成的“星链”网络,其中1584颗将部署在地球上空550千米处的近地轨道,并从2020年开始工作。该卫星仍在工作。
2D Orbit Map
3D Orbit Map
Orbit Altitude Analysis Chart
Orbit Inclination Analysis Chart
Orbit Comprehensive Analysis Chart
View Comprehensive ChartConjunction Data List
| Event ID | Objects | TCA | Miss Dist (km) | Collision Risk Probability | Collision Risk Index (CRI) | Action |
|---|---|---|---|---|---|---|
| CDM_260905-033705-326206-232021 |
STARLINK-4085
(53262)
STARLINK-32481
(62320) | 2026-09-05T 03:37:20+0000 |
0.679 km
远距离 | 3.41311E-5 中风险 | 0.66 | |
| CDM_260827-215605-326206-566421 |
STARLINK-4085
(53262)
STARLINK-35201
(65664) | 2026-08-27T 21:56:49+0000 |
2.151 km
极远距离 | 2.329073E-6 低风险 | 0.42 | |
| CDM_260905-035805-326206-815721 |
STARLINK-4085
(53262)
STARLINK-37064
(68157) | 2026-09-05T 03:58:31+0000 |
2.185 km
极远距离 | 2.30217E-6 低风险 | 0.42 | |
| CDM_260903-160605-326206-567223 |
STARLINK-4085
(53262)
STARLINK-35198
(65672) | 2026-09-03T 16:06:05+0000 |
2.232 km
极远距离 | 2.199069E-6 低风险 | 0.42 | |
| CDM_260829-190805-326206-839222 |
STARLINK-4085
(53262)
STARLINK-37215
(68392) | 2026-08-29T 19:08:55+0000 |
2.178 km
极远距离 | 2.060346E-6 低风险 | 0.41 | |
| CDM_260903-014305-326205-633523 |
STARLINK-4085
(53262)
STARLINK-5559
(56335) | 2026-09-03T 01:43:12+0000 |
2.453 km
极远距离 | 1.747692E-6 低风险 | 0.4 | |
| CDM_260903-000905-326205-633525 |
STARLINK-4085
(53262)
STARLINK-5559
(56335) | 2026-09-03T 00:09:16+0000 |
2.701 km
极远距离 | 1.484837E-6 低风险 | 0.38 | |
| CDM_260905-001105-326206-877021 |
STARLINK-4085
(53262)
STARLINK-37417
(68770) | 2026-09-05T 00:11:25+0000 |
2.855 km
极远距离 | 1.423335E-6 低风险 | 0.38 | |
| CDM_260905-043805-326206-460821 |
STARLINK-4085
(53262)
STARLINK-34519
(64608) | 2026-09-05T 04:38:59+0000 |
2.557 km
极远距离 | 1.391838E-6 低风险 | 0.38 | |
| CDM_260905-005805-326206-877021 |
STARLINK-4085
(53262)
STARLINK-37417
(68770) | 2026-09-05T 00:58:24+0000 |
2.915 km
极远距离 | 1.38461E-6 低风险 | 0.38 |

